RYR496E LEZL-GCFV

Flight info

Callsign RYR496E
Flight time 1h 49m
Altitude 35000
Route CLANA N857 KORNO UN857 TERTO
Aircraft B738/M-SDE2E3FGHIRWXY/LB1

Departure

Time 2026-04-26 13:07
Airport Seville Airport (LEZL)

Arrival

Time 2026-04-26 14:56
Airport Fuerteventura Airport (GCFV)
Time Latitude Longitude Altitude Speed Heading
2026-04-26 12:41 37.42154 -5.90028 93 ft 0 kts 315°
2026-04-26 12:58 37.42151 -5.90025 93 ft 3 kts 314°
2026-04-26 12:58 37.42133 -5.90000 93 ft 4 kts 305°
2026-04-26 12:59 37.42120 -5.89971 93 ft 4 kts 287°
2026-04-26 12:59 37.42119 -5.89941 93 ft 4 kts 236°
2026-04-26 12:59 37.42122 -5.89935 93 ft 0 kts 225°
2026-04-26 13:01 37.42121 -5.89936 93 ft 0 kts 225°
2026-04-26 13:02 37.42111 -5.89948 93 ft 4 kts 224°
2026-04-26 13:02 37.42078 -5.89989 92 ft 9 kts 225°
2026-04-26 13:02 37.42041 -5.90080 93 ft 13 kts 218°
2026-04-26 13:02 37.41978 -5.90149 94 ft 13 kts 269°
2026-04-26 13:03 37.41979 -5.90264 94 ft 13 kts 271°
2026-04-26 13:03 37.41979 -5.90376 93 ft 13 kts 271°
2026-04-26 13:03 37.41977 -5.90500 92 ft 15 kts 267°
2026-04-26 13:03 37.41977 -5.90642 92 ft 18 kts 271°
2026-04-26 13:04 37.41974 -5.90807 90 ft 20 kts 267°
2026-04-26 13:04 37.41948 -5.90984 90 ft 22 kts 244°
2026-04-26 13:04 37.41870 -5.91150 89 ft 16 kts 237°
2026-04-26 13:04 37.41790 -5.91171 89 ft 9 kts 140°
2026-04-26 13:05 37.41788 -5.91145 91 ft 1 kts 88°
2026-04-26 13:05 37.41789 -5.91141 89 ft 0 kts 88°
2026-04-26 13:06 37.41789 -5.91126 92 ft 6 kts 88°
2026-04-26 13:06 37.41789 -5.90828 93 ft 68 kts 89°
2026-04-26 13:06 37.41792 -5.89948 98 ft 130 kts 90°
2026-04-26 13:06 37.41796 -5.88628 311 ft 161 kts 90°
2026-04-26 13:07 37.41800 -5.87257 1097 ft 160 kts 90°
2026-04-26 13:07 37.41779 -5.85843 1805 ft 160 kts 91°
2026-04-26 13:07 37.41742 -5.84360 2254 ft 182 kts 96°
2026-04-26 13:07 37.41190 -5.82829 2563 ft 208 kts 137°
2026-04-26 13:08 37.39822 -5.82180 3113 ft 223 kts 180°
2026-04-26 13:08 37.38378 -5.82908 3814 ft 232 kts 220°
2026-04-26 13:08 37.37247 -5.84359 4608 ft 234 kts 225°
2026-04-26 13:08 37.36123 -5.85871 5282 ft 239 kts 224°
2026-04-26 13:09 37.34978 -5.87397 6010 ft 241 kts 224°
2026-04-26 13:09 37.33820 -5.88936 6737 ft 244 kts 225°
2026-04-26 13:09 37.32681 -5.90537 7447 ft 247 kts 227°
2026-04-26 13:09 37.31605 -5.92252 8089 ft 254 kts 233°
2026-04-26 13:10 37.30615 -5.94136 8697 ft 260 kts 231°
2026-04-26 13:10 37.29406 -5.95767 9492 ft 254 kts 216°
2026-04-26 13:10 37.28021 -5.97149 10199 ft 255 kts 216°
2026-04-26 13:10 37.26634 -5.98560 10816 ft 261 kts 216°
2026-04-26 13:11 37.25147 -6.00038 11064 ft 284 kts 215°
2026-04-26 13:11 37.23530 -6.01628 11243 ft 308 kts 215°
2026-04-26 13:11 37.21779 -6.03346 11419 ft 331 kts 215°
2026-04-26 13:11 37.19909 -6.05186 11646 ft 350 kts 216°
2026-04-26 13:12 37.17969 -6.07102 12164 ft 359 kts 216°
2026-04-26 13:12 37.15998 -6.09048 12865 ft 361 kts 216°
2026-04-26 13:12 37.14015 -6.11007 13579 ft 364 kts 216°
2026-04-26 13:12 37.12019 -6.12980 14299 ft 368 kts 217°
2026-04-26 13:13 37.10004 -6.14967 15067 ft 369 kts 217°
2026-04-26 13:13 37.07981 -6.16964 15784 ft 372 kts 217°
2026-04-26 13:13 37.05933 -6.18982 16416 ft 377 kts 217°
2026-04-26 13:13 37.03865 -6.21020 17116 ft 379 kts 217°
2026-04-26 13:14 37.01786 -6.23067 17805 ft 382 kts 218°
2026-04-26 13:14 36.99690 -6.25127 18441 ft 385 kts 218°
2026-04-26 13:14 36.97573 -6.27207 19036 ft 389 kts 218°
2026-04-26 13:14 36.95434 -6.29306 19639 ft 392 kts 218°
2026-04-26 13:15 36.93278 -6.31419 20232 ft 395 kts 218°
2026-04-26 13:15 36.91135 -6.33521 20780 ft 399 kts 218°
2026-04-26 13:15 36.88941 -6.35674 21332 ft 402 kts 218°
2026-04-26 13:15 36.87454 -6.37131 21718 ft 403 kts 218°
2026-04-26 13:16 36.84515 -6.40007 22372 ft 408 kts 218°
2026-04-26 13:16 36.82271 -6.42199 22888 ft 411 kts 218°
2026-04-26 13:16 36.80013 -6.44404 23370 ft 413 kts 218°
2026-04-26 13:16 36.77738 -6.46621 23832 ft 417 kts 218°
2026-04-26 13:17 36.73141 -6.51102 24737 ft 422 kts 218°
2026-04-26 13:17 36.70818 -6.53364 25176 ft 425 kts 218°
2026-04-26 13:18 36.66131 -6.57922 26015 ft 430 kts 218°
2026-04-26 13:18 36.63765 -6.60220 26409 ft 432 kts 218°
2026-04-26 13:18 36.58990 -6.64852 27142 ft 438 kts 218°
2026-04-26 13:19 36.56580 -6.67186 27517 ft 440 kts 218°
2026-04-26 13:19 36.54160 -6.69531 27886 ft 442 kts 218°
2026-04-26 13:19 36.51727 -6.71886 28234 ft 444 kts 218°
2026-04-26 13:19 36.49294 -6.74271 28558 ft 447 kts 220°
2026-04-26 13:20 36.46884 -6.76728 28882 ft 449 kts 220°
2026-04-26 13:20 36.44485 -6.79216 29216 ft 450 kts 220°
2026-04-26 13:20 36.42084 -6.81715 29638 ft 449 kts 221°
2026-04-26 13:20 36.39693 -6.84200 30085 ft 447 kts 220°
2026-04-26 13:21 36.37308 -6.86668 30521 ft 446 kts 220°
2026-04-26 13:21 36.35729 -6.88297 30786 ft 445 kts 220°
2026-04-26 13:21 36.32542 -6.91578 31276 ft 445 kts 220°
2026-04-26 13:21 36.30161 -6.94022 31649 ft 444 kts 220°
2026-04-26 13:22 36.27785 -6.96457 32032 ft 443 kts 221°
2026-04-26 13:22 36.25413 -6.98885 32394 ft 442 kts 221°
2026-04-26 13:22 36.23044 -7.01309 32738 ft 441 kts 221°
2026-04-26 13:22 36.20682 -7.03723 33094 ft 440 kts 221°
2026-04-26 13:23 36.18321 -7.06136 33457 ft 439 kts 221°
2026-04-26 13:23 36.15971 -7.08536 33793 ft 438 kts 221°
2026-04-26 13:23 36.13620 -7.10933 34104 ft 437 kts 221°
2026-04-26 13:23 36.11273 -7.13326 34437 ft 436 kts 221°
2026-04-26 13:24 36.08937 -7.15706 34790 ft 435 kts 221°
2026-04-26 13:24 36.06602 -7.18081 35021 ft 436 kts 221°
2026-04-26 13:24 36.04248 -7.20476 34999 ft 440 kts 221°
2026-04-26 13:25 35.99535 -7.25265 35007 ft 436 kts 221°
2026-04-26 13:25 35.94893 -7.29970 35008 ft 430 kts 221°
2026-04-26 13:26 35.90278 -7.34641 35014 ft 428 kts 221°
2026-04-26 13:26 35.85667 -7.39307 35012 ft 428 kts 221°
2026-04-26 13:27 35.81055 -7.43954 34998 ft 428 kts 221°
2026-04-26 13:27 35.76418 -7.48578 35002 ft 430 kts 220°
2026-04-26 13:28 35.71768 -7.53207 35003 ft 430 kts 220°
2026-04-26 13:28 35.67114 -7.57840 35003 ft 431 kts 220°
2026-04-26 13:29 35.62455 -7.62469 34986 ft 431 kts 220°
2026-04-26 13:29 35.57823 -7.67069 34987 ft 431 kts 220°
2026-04-26 13:30 35.53915 -7.70943 34997 ft 431 kts 220°
2026-04-26 13:30 35.48485 -7.76319 34985 ft 432 kts 220°
2026-04-26 13:31 35.44565 -7.80193 35000 ft 432 kts 220°
2026-04-26 13:31 35.39888 -7.84819 34991 ft 432 kts 220°
2026-04-26 13:32 35.35234 -7.89467 34986 ft 432 kts 220°
2026-04-26 13:32 35.30584 -7.94118 34976 ft 432 kts 220°
2026-04-26 13:33 35.25928 -7.98766 34974 ft 432 kts 220°
2026-04-26 13:33 35.21306 -8.03368 34976 ft 431 kts 220°
2026-04-26 13:34 35.16660 -8.07989 34973 ft 430 kts 220°
2026-04-26 13:34 35.12013 -8.12604 34973 ft 430 kts 220°
2026-04-26 13:35 35.07373 -8.17210 34971 ft 430 kts 220°
2026-04-26 13:35 35.02722 -8.21808 34962 ft 430 kts 219°
2026-04-26 13:36 34.98081 -8.26395 34963 ft 429 kts 219°
2026-04-26 13:36 34.93444 -8.30969 34962 ft 428 kts 219°
2026-04-26 13:37 34.88816 -8.35530 34955 ft 428 kts 219°
2026-04-26 13:37 34.84186 -8.40084 34955 ft 428 kts 219°
2026-04-26 13:38 34.79555 -8.44636 34945 ft 428 kts 219°
2026-04-26 13:38 34.74925 -8.49179 34957 ft 428 kts 219°
2026-04-26 13:39 34.70290 -8.53723 34947 ft 428 kts 219°
2026-04-26 13:39 34.65652 -8.58253 34948 ft 428 kts 219°
2026-04-26 13:40 34.61012 -8.62783 34943 ft 428 kts 219°
2026-04-26 13:40 34.56375 -8.67309 34943 ft 428 kts 219°
2026-04-26 13:41 34.51733 -8.71830 34946 ft 427 kts 219°
2026-04-26 13:41 34.47099 -8.76336 34940 ft 427 kts 218°
2026-04-26 13:42 34.42459 -8.80836 34931 ft 427 kts 218°
2026-04-26 13:42 34.37804 -8.85312 34942 ft 427 kts 218°
2026-04-26 13:43 34.33147 -8.89780 34936 ft 427 kts 218°
2026-04-26 13:43 34.28520 -8.94215 34937 ft 427 kts 218°
2026-04-26 13:44 34.23865 -8.98676 34937 ft 427 kts 218°
2026-04-26 13:44 34.19205 -9.03132 34937 ft 427 kts 218°
2026-04-26 13:45 34.14542 -9.07589 34932 ft 427 kts 218°
2026-04-26 13:45 34.09883 -9.12035 34936 ft 427 kts 218°
2026-04-26 13:46 34.05225 -9.16471 34937 ft 426 kts 218°
2026-04-26 13:46 34.00568 -9.20898 34927 ft 427 kts 218°
2026-04-26 13:47 33.95907 -9.25324 34920 ft 426 kts 217°
2026-04-26 13:47 33.91251 -9.29740 34919 ft 426 kts 217°
2026-04-26 13:48 33.86622 -9.34124 34918 ft 426 kts 217°
2026-04-26 13:48 33.81962 -9.38527 34910 ft 426 kts 217°
2026-04-26 13:49 33.77304 -9.42924 34906 ft 425 kts 217°
2026-04-26 13:49 33.72648 -9.47315 34905 ft 425 kts 217°
2026-04-26 13:50 33.67998 -9.51698 34911 ft 425 kts 217°
2026-04-26 13:50 33.63348 -9.56074 34914 ft 424 kts 217°
2026-04-26 13:51 33.58700 -9.60439 34916 ft 424 kts 217°
2026-04-26 13:51 33.54050 -9.64795 34914 ft 424 kts 217°
2026-04-26 13:52 33.49397 -9.69151 34906 ft 424 kts 217°
2026-04-26 13:52 33.44747 -9.73502 34906 ft 424 kts 217°
2026-04-26 13:53 33.40097 -9.77846 34909 ft 424 kts 217°
2026-04-26 13:53 33.35445 -9.82185 34898 ft 424 kts 217°
2026-04-26 13:54 33.30796 -9.86516 34898 ft 424 kts 217°
2026-04-26 13:54 33.26172 -9.90815 34901 ft 424 kts 217°
2026-04-26 13:55 33.19939 -9.96601 34899 ft 424 kts 217°
2026-04-26 13:56 33.12193 -10.03778 34908 ft 424 kts 217°
2026-04-26 13:56 33.07539 -10.08084 34907 ft 424 kts 217°
2026-04-26 13:57 33.02880 -10.12387 34909 ft 423 kts 217°
2026-04-26 13:57 32.98224 -10.16678 34904 ft 423 kts 217°
2026-04-26 13:58 32.93564 -10.20960 34908 ft 423 kts 217°
2026-04-26 13:58 32.88904 -10.25235 34905 ft 423 kts 217°
2026-04-26 13:59 32.84278 -10.29482 34909 ft 423 kts 217°
2026-04-26 13:59 32.79610 -10.33756 34905 ft 424 kts 217°
2026-04-26 14:00 32.70278 -10.42285 34900 ft 423 kts 217°
2026-04-26 14:01 32.65614 -10.46539 34899 ft 423 kts 216°
2026-04-26 14:01 32.60952 -10.50783 34898 ft 422 kts 217°
2026-04-26 14:02 32.56293 -10.55026 34897 ft 422 kts 217°
2026-04-26 14:02 32.51630 -10.59255 34895 ft 422 kts 217°
2026-04-26 14:03 32.46975 -10.63485 34899 ft 421 kts 217°
2026-04-26 14:03 32.42319 -10.67710 34897 ft 422 kts 216°
2026-04-26 14:04 32.37661 -10.71924 34897 ft 421 kts 216°
2026-04-26 14:04 32.33001 -10.76131 34903 ft 421 kts 216°
2026-04-26 14:05 32.29129 -10.79627 34897 ft 421 kts 216°
2026-04-26 14:05 32.23720 -10.84506 34901 ft 421 kts 216°
2026-04-26 14:06 32.19066 -10.88695 34894 ft 421 kts 216°
2026-04-26 14:06 32.14411 -10.92879 34900 ft 420 kts 216°
2026-04-26 14:07 32.09762 -10.97049 34898 ft 420 kts 216°
2026-04-26 14:07 32.05114 -11.01217 34898 ft 420 kts 216°
2026-04-26 14:08 32.00472 -11.05377 34894 ft 419 kts 216°
2026-04-26 14:08 31.95830 -11.09529 34906 ft 418 kts 217°
2026-04-26 14:09 31.91188 -11.13674 34893 ft 419 kts 217°
2026-04-26 14:09 31.86546 -11.17814 34899 ft 418 kts 217°
2026-04-26 14:10 31.81919 -11.21940 34908 ft 417 kts 217°
2026-04-26 14:10 31.77297 -11.26051 34911 ft 416 kts 217°
2026-04-26 14:11 31.70388 -11.32202 34915 ft 415 kts 217°
2026-04-26 14:11 31.65783 -11.36306 34925 ft 415 kts 217°
2026-04-26 14:12 31.61181 -11.40405 34917 ft 415 kts 217°
2026-04-26 14:12 31.56579 -11.44498 34916 ft 415 kts 217°
2026-04-26 14:13 31.49708 -11.50592 34918 ft 415 kts 217°
2026-04-26 14:14 31.45102 -11.54675 34911 ft 415 kts 217°
2026-04-26 14:14 31.40491 -11.58757 34907 ft 415 kts 217°
2026-04-26 14:15 31.35882 -11.62832 34909 ft 415 kts 217°
2026-04-26 14:15 31.31279 -11.66900 34902 ft 415 kts 217°
2026-04-26 14:16 31.26674 -11.70958 34909 ft 414 kts 217°
2026-04-26 14:16 31.22077 -11.75007 34919 ft 414 kts 217°
2026-04-26 14:17 31.17481 -11.79049 34919 ft 413 kts 217°
2026-04-26 14:17 31.12886 -11.83084 34916 ft 413 kts 217°
2026-04-26 14:18 31.08292 -11.87110 34916 ft 413 kts 217°
2026-04-26 14:18 31.03700 -11.91135 34916 ft 412 kts 218°
2026-04-26 14:19 30.99120 -11.95146 34933 ft 411 kts 218°
2026-04-26 14:19 30.94547 -11.99143 34930 ft 410 kts 218°
2026-04-26 14:20 30.89993 -12.03121 34936 ft 408 kts 218°
2026-04-26 14:20 30.85455 -12.07077 34933 ft 407 kts 218°
2026-04-26 14:21 30.80927 -12.11020 34935 ft 406 kts 218°
2026-04-26 14:21 30.77170 -12.14289 34948 ft 405 kts 218°
2026-04-26 14:22 30.72659 -12.18211 34947 ft 404 kts 218°
2026-04-26 14:22 30.68156 -12.22119 34943 ft 404 kts 218°
2026-04-26 14:23 30.63656 -12.26022 34943 ft 403 kts 218°
2026-04-26 14:23 30.59164 -12.29913 34941 ft 402 kts 218°
2026-04-26 14:24 30.54678 -12.33794 34943 ft 403 kts 218°
2026-04-26 14:24 30.50185 -12.37674 34942 ft 403 kts 218°
2026-04-26 14:25 30.45683 -12.41547 34957 ft 402 kts 218°
2026-04-26 14:25 30.41183 -12.45409 34956 ft 403 kts 218°
2026-04-26 14:26 30.36678 -12.49272 34957 ft 403 kts 218°
2026-04-26 14:26 30.32166 -12.53138 34950 ft 404 kts 218°
2026-04-26 14:27 30.27654 -12.57004 34949 ft 404 kts 218°
2026-04-26 14:27 30.23142 -12.60861 34952 ft 403 kts 218°
2026-04-26 14:28 30.18630 -12.64715 34957 ft 403 kts 218°
2026-04-26 14:28 30.14120 -12.68564 34963 ft 403 kts 218°
2026-04-26 14:29 30.09570 -12.72343 34957 ft 404 kts 213°
2026-04-26 14:29 30.04665 -12.75531 34960 ft 405 kts 211°
2026-04-26 14:30 29.99746 -12.78599 34961 ft 405 kts 211°
2026-04-26 14:30 29.94808 -12.81714 34971 ft 404 kts 211°
2026-04-26 14:31 29.89892 -12.84839 34957 ft 403 kts 211°
2026-04-26 14:31 29.84989 -12.87962 34964 ft 402 kts 211°
2026-04-26 14:32 29.80139 -12.91051 34783 ft 393 kts 211°
2026-04-26 14:32 29.77775 -12.92555 34531 ft 384 kts 211°
2026-04-26 14:32 29.75447 -12.94035 34135 ft 380 kts 211°
2026-04-26 14:32 29.73143 -12.95500 33781 ft 376 kts 211°
2026-04-26 14:33 29.70861 -12.96951 33402 ft 373 kts 211°
2026-04-26 14:33 29.68597 -12.98390 33025 ft 370 kts 211°
2026-04-26 14:33 29.66350 -12.99815 32653 ft 368 kts 211°
2026-04-26 14:33 29.64119 -13.01231 32280 ft 365 kts 211°
2026-04-26 14:34 29.61902 -13.02636 31909 ft 363 kts 211°
2026-04-26 14:34 29.59698 -13.04034 31544 ft 361 kts 211°
2026-04-26 14:34 29.57503 -13.05426 31181 ft 359 kts 211°
2026-04-26 14:34 29.55327 -13.06803 30821 ft 356 kts 211°
2026-04-26 14:35 29.53159 -13.08174 30463 ft 355 kts 211°
2026-04-26 14:35 29.51001 -13.09541 30099 ft 353 kts 211°
2026-04-26 14:35 29.48857 -13.10896 29749 ft 351 kts 210°
2026-04-26 14:35 29.46727 -13.12243 29386 ft 349 kts 211°
2026-04-26 14:36 29.44610 -13.13579 29012 ft 346 kts 210°
2026-04-26 14:36 29.42505 -13.14908 28647 ft 344 kts 211°
2026-04-26 14:36 29.40412 -13.16229 28287 ft 343 kts 211°
2026-04-26 14:36 29.38331 -13.17541 27917 ft 341 kts 211°
2026-04-26 14:37 29.36260 -13.18844 27555 ft 339 kts 210°
2026-04-26 14:37 29.34161 -13.20057 27197 ft 337 kts 208°
2026-04-26 14:37 29.32052 -13.21208 26842 ft 335 kts 207°
2026-04-26 14:37 29.29951 -13.22340 26491 ft 333 kts 207°
2026-04-26 14:38 29.27859 -13.23474 26137 ft 331 kts 207°
2026-04-26 14:38 29.25787 -13.24606 25789 ft 329 kts 208°
2026-04-26 14:38 29.23727 -13.25735 25439 ft 328 kts 207°
2026-04-26 14:38 29.21675 -13.26863 25096 ft 326 kts 208°
2026-04-26 14:39 29.19627 -13.27987 24706 ft 327 kts 207°
2026-04-26 14:39 29.17565 -13.29116 24289 ft 330 kts 207°
2026-04-26 14:39 29.15472 -13.30263 23882 ft 336 kts 207°
2026-04-26 14:39 29.13346 -13.31429 23458 ft 342 kts 208°
2026-04-26 14:40 29.11194 -13.32600 23012 ft 343 kts 207°
2026-04-26 14:40 29.09034 -13.33778 22576 ft 344 kts 207°
2026-04-26 14:40 29.06878 -13.34957 22138 ft 343 kts 207°
2026-04-26 14:40 29.04725 -13.36134 21694 ft 342 kts 207°
2026-04-26 14:41 29.02578 -13.37306 21266 ft 342 kts 207°
2026-04-26 14:41 29.00434 -13.38477 20835 ft 341 kts 207°
2026-04-26 14:41 28.98294 -13.39646 20405 ft 340 kts 207°
2026-04-26 14:41 28.96159 -13.40812 19977 ft 340 kts 207°
2026-04-26 14:42 28.94031 -13.41973 19546 ft 339 kts 207°
2026-04-26 14:42 28.91903 -13.43130 19131 ft 337 kts 207°
2026-04-26 14:42 28.89787 -13.44282 18676 ft 338 kts 206°
2026-04-26 14:42 28.87670 -13.45436 18259 ft 337 kts 206°
2026-04-26 14:43 28.85558 -13.46588 17838 ft 336 kts 206°
2026-04-26 14:43 28.83457 -13.47731 17434 ft 334 kts 206°
2026-04-26 14:43 28.81387 -13.48858 16986 ft 334 kts 206°
2026-04-26 14:43 28.79291 -13.49999 16573 ft 333 kts 206°
2026-04-26 14:44 28.77172 -13.51149 16151 ft 332 kts 206°
2026-04-26 14:44 28.75121 -13.52262 15751 ft 330 kts 206°
2026-04-26 14:44 28.73047 -13.53388 15312 ft 330 kts 206°
2026-04-26 14:44 28.70951 -13.54526 14893 ft 328 kts 206°
2026-04-26 14:45 28.68919 -13.55627 14484 ft 327 kts 206°
2026-04-26 14:45 28.67533 -13.56378 14226 ft 326 kts 206°
2026-04-26 14:45 28.64824 -13.57846 13652 ft 326 kts 206°
2026-04-26 14:45 28.62782 -13.58952 13254 ft 324 kts 206°
2026-04-26 14:46 28.60750 -13.60053 12843 ft 323 kts 206°
2026-04-26 14:46 28.58728 -13.61147 12449 ft 321 kts 206°
2026-04-26 14:46 28.56709 -13.62240 12016 ft 321 kts 206°
2026-04-26 14:46 28.54694 -13.63330 11619 ft 320 kts 206°
2026-04-26 14:47 28.52689 -13.64422 11219 ft 319 kts 206°
2026-04-26 14:47 28.50721 -13.65577 10826 ft 318 kts 208°
2026-04-26 14:47 28.48768 -13.66758 10403 ft 318 kts 208°
2026-04-26 14:47 28.46822 -13.67939 10013 ft 317 kts 208°
2026-04-26 14:48 28.44902 -13.69103 9912 ft 305 kts 208°
2026-04-26 14:48 28.43076 -13.70205 9896 ft 291 kts 208°
2026-04-26 14:48 28.41306 -13.71270 9672 ft 286 kts 207°
2026-04-26 14:48 28.39539 -13.72333 9329 ft 288 kts 207°
2026-04-26 14:49 28.37773 -13.73394 9031 ft 286 kts 207°
2026-04-26 14:49 28.36010 -13.74451 8691 ft 287 kts 207°
2026-04-26 14:49 28.34245 -13.75508 8387 ft 286 kts 207°
2026-04-26 14:49 28.32492 -13.76557 8115 ft 284 kts 207°
2026-04-26 14:50 28.30752 -13.77600 7821 ft 283 kts 207°
2026-04-26 14:50 28.29016 -13.78639 7521 ft 281 kts 208°
2026-04-26 14:50 28.27297 -13.79666 7141 ft 278 kts 208°
2026-04-26 14:50 28.25584 -13.80688 6690 ft 278 kts 208°
2026-04-26 14:51 28.24011 -13.81877 6255 ft 275 kts 229°
2026-04-26 14:51 28.23125 -13.83727 5995 ft 262 kts 259°
2026-04-26 14:51 28.23084 -13.85726 5721 ft 250 kts 285°
2026-04-26 14:51 28.23709 -13.87491 5517 ft 234 kts 311°
2026-04-26 14:52 28.24996 -13.88406 5371 ft 215 kts 353°
2026-04-26 14:52 28.26458 -13.88332 5054 ft 210 kts 11°
2026-04-26 14:52 28.27887 -13.87956 4691 ft 210 kts 13°
2026-04-26 14:52 28.29286 -13.87555 4353 ft 205 kts 13°
2026-04-26 14:53 28.30666 -13.87165 4053 ft 203 kts 13°
2026-04-26 14:53 28.32043 -13.86814 3993 ft 202 kts
2026-04-26 14:53 28.33435 -13.86743 3570 ft 197 kts
2026-04-26 14:53 28.34806 -13.86713 2912 ft 196 kts
2026-04-26 14:54 28.36163 -13.86676 2242 ft 196 kts 357°
2026-04-26 14:54 28.37563 -13.86635 1559 ft 205 kts
2026-04-26 14:54 28.38937 -13.86588 1335 ft 188 kts
2026-04-26 14:54 28.40172 -13.86543 1117 ft 167 kts
2026-04-26 14:55 28.41328 -13.86478 712 ft 157 kts
2026-04-26 14:55 28.42394 -13.86454 378 ft 147 kts
2026-04-26 14:55 28.43386 -13.86439 244 ft 142 kts
2026-04-26 14:55 28.44363 -13.86403 83 ft 136 kts
2026-04-26 14:56 28.45213 -13.86378 71 ft 103 kts
2026-04-26 14:56 28.45718 -13.86361 87 ft 39 kts
2026-04-26 14:56 28.45963 -13.86384 90 ft 33 kts 346°
2026-04-26 14:56 28.46129 -13.86473 94 ft 15 kts 313°
2026-04-26 14:57 28.46106 -13.86538 97 ft 11 kts 191°
2026-04-26 14:57 28.46025 -13.86545 97 ft 13 kts 180°
2026-04-26 14:57 28.45918 -13.86547 97 ft 18 kts 181°
2026-04-26 14:57 28.45791 -13.86550 97 ft 18 kts 180°
2026-04-26 14:58 28.45725 -13.86552 96 ft 0 kts 182°
2026-04-26 14:58 28.45719 -13.86553 96 ft 3 kts 182°
2026-04-26 14:58 28.45670 -13.86556 96 ft 12 kts 185°
2026-04-26 14:58 28.45569 -13.86562 95 ft 16 kts 182°
2026-04-26 14:59 28.45452 -13.86563 95 ft 17 kts 181°
2026-04-26 14:59 28.45378 -13.86577 94 ft 6 kts 227°
2026-04-26 14:59 28.45369 -13.86623 97 ft 6 kts 268°
2026-04-26 14:59 28.45370 -13.86654 97 ft 6 kts 271°
2026-04-26 15:00 28.45363 -13.86715 98 ft 7 kts 233°
2026-04-26 15:00 28.45308 -13.86736 98 ft 11 kts 183°
2026-04-26 15:00 28.45269 -13.86796 98 ft 11 kts 270°
2026-04-26 15:00 28.45270 -13.86834 98 ft 1 kts 271°
2026-04-26 15:01 28.45270 -13.86836 98 ft 0 kts 271°